Darstellungsparameter: Aktuell verwendete Einstellungen:
Skalierung der Graphiken ... ?
xyx+y,   Skalierungsfaktor:      Skalierung: Modus: x, Faktor: 1
Darstellungszeitraum ... ?
Vom - - bis: - -   Zeitraum: 02.03.2021 - 03.03.2021
Min/Max/Avg-Anzeige ... ?
Zeige MMA aktuell
Zeige MMA Monat
Zeige MMA alles
Zeige --A aktuell
Zeige --A Monat
Zeige --A alles
Keine MMA-Anzeige
MMA:
Average (ber die Originaldaten)
MMA-Basis: 23.02.2003 - 03.08.2020
Quicknavigation für Darstellung... ?
Tage:      1T, 2T, 3T, 5T -1T -2T -3T -5T +1T +2T +3T +5T
Wochen: 1W, 2W, 3W -1W -2W -3W +1W +2W +3W
Monate: 1M, 3M, 6M -1M -3M -6M +1M +3M +6M
Jahre:    1J, 3J, 5J, 10J -1J -3J -5J -10J +1J +3J +5J +10J
Nutze für die Darstellung ... ?
Originaldaten oder ...
Mittelwerte Minima Maxima auf...
Stundenbasis Tagesbasis Wochenbasis
Monatsbasis Jahresbasis      Datenbasis: Mittelwerte auf Stundenbasis
Darstellen als:
Statistik (Auto) Statistik J:M      Darstellung:
Zur Graphik,    zurück zur Übersicht aller Sensoren.
 
Tabellarische Datenbersicht: ?
 
Sensor: Nr:Datum:Temp:Abs-Feuchte:Windchill:Wind:
Aussen-T/F 1 02-03-2021 00:00:00 2.14167 C 5.18 g/m*3 2.14 C 0 km/h
2 02-03-2021 01:00:00 1.66667 C 5.08 g/m*3 1.67 C 0 km/h
3 02-03-2021 02:00:00 1 C 4.88 g/m*3 1 C 0 km/h
4 02-03-2021 03:00:00 0.325 C 4.66 g/m*3 0.33 C 0 km/h
5 02-03-2021 04:00:00 0.025 C 4.61 g/m*3 0.03 C 0 km/h
6 02-03-2021 05:00:00 -0.325 C 4.5 g/m*3 -0.33 C 0 km/h
7 02-03-2021 06:00:00 -0.45833 C 4.46 g/m*3 -0.46 C 0 km/h
8 02-03-2021 07:00:00 -0.58333 C 4.43 g/m*3 -0.58 C 0 km/h
9 02-03-2021 08:00:00 -0.83333 C 4.35 g/m*3 -0.83 C 0 km/h
10 02-03-2021 09:00:00 -0.08333 C 4.62 g/m*3 -0.08 C 0 km/h
11 02-03-2021 10:00:00 1.625 C 5.23 g/m*3 1.63 C 0 km/h
12 02-03-2021 11:00:00 5.225 C 6.69 g/m*3 5.23 C 0 km/h
13 02-03-2021 12:00:00 8.925 C 7.96 g/m*3 8.93 C 0 km/h
14 02-03-2021 13:00:00 13.59167 C 8.19 g/m*3 13.59 C 0 km/h
15 02-03-2021 14:00:00 16.175 C 7.49 g/m*3 16.18 C 1.2 km/h
16 02-03-2021 15:00:00 15.58333 C 7.25 g/m*3 15.58 C 2 km/h
17 02-03-2021 16:00:00 15.725 C 7.56 g/m*3 15.73 C 1.86667 km/h
18 02-03-2021 17:00:00 14.525 C 7.54 g/m*3 14.53 C 5.46667 km/h
19 02-03-2021 18:00:00 10.81667 C 6.91 g/m*3 10.27 C 6.575 km/h
20 02-03-2021 19:00:00 8.775 C 6.67 g/m*3 8.78 C 4.93333 km/h
21 02-03-2021 20:00:00 7.50833 C 6.55 g/m*3 6.86 C 5.2 km/h
22 02-03-2021 21:00:00 6.21667 C 6.24 g/m*3 6.22 C 1.86667 km/h
23 02-03-2021 22:00:00 4.79167 C 5.91 g/m*3 4.79 C 0.53333 km/h
24 02-03-2021 23:00:00 3.46667 C 5.52 g/m*3 3.47 C 0 km/h
25 03-03-2021 00:00:00 2.61667 C 5.32 g/m*3 2.62 C 0.13333 km/h
Sensor: Nr:Datum:Temp:Abs-Feuchte:Windchill:Wind:
Aussen-T/F 26 03-03-2021 01:00:00 2.05 C 5.19 g/m*3 2.05 C 0 km/h
27 03-03-2021 02:00:00 1.41667 C 5 g/m*3 1.42 C 0 km/h
28 03-03-2021 03:00:00 1.09167 C 4.91 g/m*3 1.09 C 0 km/h
29 03-03-2021 04:00:00 1.24167 C 5.01 g/m*3 1.24 C 0 km/h
30 03-03-2021 05:00:00 0.89167 C 4.89 g/m*3 0.89 C 0.53333 km/h
31 03-03-2021 06:00:00 0.83333 C 4.88 g/m*3 0.83 C 0 km/h
32 03-03-2021 07:00:00 0.75833 C 4.86 g/m*3 0.76 C 0 km/h
33 03-03-2021 08:00:00 1.54167 C 5.17 g/m*3 1.54 C 0 km/h
34 03-03-2021 09:00:00 2.4 C 5.47 g/m*3 2.4 C 0.4 km/h
35 03-03-2021 10:00:00 3.43333 C 5.83 g/m*3 3.43 C 0 km/h
36 03-03-2021 11:00:00 6.2 C 6.61 g/m*3 6.2 C 0 km/h
37 03-03-2021 12:00:00 10.13333 C 7.19 g/m*3 10.13 C 0 km/h
38 03-03-2021 13:00:00 13.675 C 7.58 g/m*3 13.68 C 0.8 km/h
39 03-03-2021 14:00:00 15.6 C 7.58 g/m*3 15.6 C 1.075 km/h
40 03-03-2021 15:00:00 16.20833 C 7.58 g/m*3 16.21 C 0 km/h
41 03-03-2021 16:00:00 16.59167 C 7.9 g/m*3 16.59 C 0 km/h
42 03-03-2021 17:00:00 14.38333 C 7.98 g/m*3 14.38 C 0 km/h
43 03-03-2021 18:00:00 11.225 C 7.33 g/m*3 11.23 C 0 km/h
44 03-03-2021 19:00:00 9.75 C 7.11 g/m*3 9.75 C 0 km/h
45 03-03-2021 20:00:00 8.625 C 6.91 g/m*3 8.63 C 0 km/h
46 03-03-2021 21:00:00 7.79167 C 6.8 g/m*3 7.79 C 0 km/h
47 03-03-2021 22:00:00 7.88333 C 6.87 g/m*3 7.88 C 0 km/h
48 03-03-2021 23:00:00 7.79167 C 6.88 g/m*3 7.79 C 0 km/h

Maximal/Minimal-Werte vom 23.02.2003 - 03.08.2020

Sensor Min Max Avg
Temp
(Aussen-T/F)
-16.4 °C
20-12-2009  01:30:01
40.4 °C
25-07-2019  16:20:00
11.23 °C

Die Daten stammen von einer Davis Vantage Pro 2 Wetter-Station und werden unter Linux mit der Software wview2wettercgi und aufbereitet. Alle Angaben erfolgen ohne Gewähr für ihre Vollständigkeit oder Richtigkeit.
Kontakt: Rainer Krienke krienke@uni-koblenz.de . Meine Webseiten an der Uni Koblenz oder privat.
Version: $Revision: 0.78 $